Regional Weather Roundup
Issued by NWS Sterling, VA

Home | Current Version | Previous Version | Graphics & Text | Print | Product List | Glossary On
Versions: 1 2 3 4 5 6 7 8 9 10 11 12 13 14 15 16 17 18 19 20 21 22 23 24 25 26 27 28 29 30 31 32 33 34 35 36 37 38 39 40 41 42 43 44 45 46 47 48 49 50
000
ASUS41 KLWX 300010
RWRLWX

REGIONAL WEATHER ROUNDUP
NATIONAL WEATHER SERVICE BALTIMORE MD/WASHINGTON DC
800 PM EDT TUE JUL 29 2014

Note: "FAIR" indicates few or no clouds below 12,000 feet
with no significant weather and/or obstructions to visibility.
 TC=TEMPERATURE CELSIUS

 * =Non NWS site. Station does not report precipitation (e.g. rain,
    snow, etc.), thunder, or fog.

DCZ001-MDZ009-015-VAZ040>042-051-053>054-300100-
WASHINGTON METRO
  /KDAA//-FT BELVOIR

CITY           SKY/WX    TMP DP  RH WIND       PRES   REMARKS
WASHINGTON NAT PTCLDY    73  47  39 NW12      29.99R
DULLES         PTCLDY    68  44  42 NW10      30.00R
ANDREWS AFB    CLEAR     70  49  47 N8        29.98S
QUANTICO       PTCLDY    70  49  47 N7        30.00R
COLLEGE PARK*  CLEAR     72  50  46 N5        29.98S
LEESBURG*      CLEAR     68  52  56 N5        30.01S
MANASSAS*      CLEAR     70  48  46 N7        30.00R
GAITHERSBURG*  PTCLDY    64  48  55 NW5       30.03S

$$

MDZ006>007-011-014-300100-
BALTIMORE METRO

CITY           SKY/WX    TMP DP  RH WIND       PRES   REMARKS
BWI AIRPORT    MOCLDY    70  51  51 NW8       29.98R
MD SCIENCE CTR   N/A     72  52  49 MISG      29.99R
MARTIN STATE   MOCLDY    70  59  68 NW3       29.99
ANNAPOLIS      CLEAR     71  54  54 W7        29.97R
FORT MEADE*    PTCLDY    66  52  59 NW6       30.01R

$$

MDZ012-015-019>023-300100-
MARYLAND EASTERN SHORE

CITY           SKY/WX    TMP DP  RH WIND       PRES   REMARKS
OCEAN CITY     CLEAR     68  55  63 NW5       29.96R
SALISBURY      NOT AVBL
BAY BRIDGE AP*   N/A     72  52  49 W12       29.97S
CAMBRIDGE*     CLEAR     72  52  49 W3        29.96S
EASTON*        CLEAR     72  55  56 CALM      30.00S

$$

MDZ017>025-300100-
SOUTHERN MARYLAND

CITY           SKY/WX    TMP DP  RH WIND       PRES   REMARKS
PATUXENT RIVER PTCLDY    71  49  45 NW8       29.97R
ST INIGOES     CLEAR     72  49  44 NW6       29.97R
LEONARDTOWN*   CLEAR     70  50  49 CALM      29.99S

$$

MDZ003>005-300100-
NORTH CENTRAL MARYLAND

CITY           SKY/WX    TMP DP  RH WIND       PRES   REMARKS
FREDERICK*     CLEAR     70  52  52 NW6       30.02S
HAGERSTOWN APT PTCLDY    65  50  58 NW3       30.01R
WESTMINSTER*   MOCLDY    68  55  64 W7        30.01R

$$

MDZ501>502-300100-
WESTERN MARYLAND

CITY           SKY/WX    TMP DP  RH WIND       PRES   REMARKS
OAKLAND*       MOCLDY    54  52  94 W3        30.07F
CUMBERLAND*    MOCLDY    68  48  49 CALM      30.06S

$$

VAZ025>031-300100-
SHENANDOAH VALLEY

CITY           SKY/WX    TMP DP  RH WIND       PRES   REMARKS
WINCHESTER*    CLEAR     66  46  48 N5        30.01S
STAUNTON*      CLOUDY    68  53  59 E5        30.03R

$$

WVZ021-048>050-054>055-300100-
EASTERN WEST VIRGINIA PANHANDLE

CITY           SKY/WX    TMP DP  RH WIND       PRES   REMARKS
MARTINSBURG    CLEAR     67  47  48 W7        30.02R
PETERSBURG*    CLEAR     65  45  49 CALM      30.04R

$$

VAZ036>039-050-300100-
CENTRAL FOOTHILLS

CITY           SKY/WX    TMP DP  RH WIND       PRES   REMARKS
CHARLOTTESVILL CLOUDY    70  56  61 NE5       29.99R
ORANGE*        CLOUDY    68  52  56 N5        30.01S

$$

VAZ055>057-300100-
NORTH AND CENTRAL PIEDMONT

CITY           SKY/WX    TMP DP  RH WIND       PRES   REMARKS
FREDERICKSBRG* CLEAR     72  51  47 N3        29.98R
STAFFORD*      CLEAR     69  52  54 N5        30.04R

$$

NCZ024-NYZ072-PAZ021-071-VAZ022-071-300100-
OTHER REGIONAL OBSERVATIONS

CITY           SKY/WX    TMP DP  RH WIND       PRES   REMARKS
NEW YORK CITY  CLOUDY    72  48  42 VRB5      29.97R
PHILADELPHIA   CLOUDY    74  52  46 NW9       29.96R
PITTSBURGH     PTCLDY    65  51  60 W5        30.03R
ROANOKE        MOCLDY    73  52  47 N12       30.01R
RICHMOND       MOCLDY    76  54  46 N7        29.96S
RALEIGH        PTCLDY    74  60  61 CALM      29.95S

$$

ANZ530>537-300100-
MARINE OBSERVATIONS

STATION/POSITION TIME  TEMP    WIND        PRES
                       AIR SEA DIR/SP/G
                 (UTC) (F)     (DEG/KT/KT) (MB)
THOMAS PT LIGHT  0000   72 78  310/ 12/ 15 1015.4R
BALT KEY BRIDGE  0000   74     280/ 15/ 18 1014.8S
COVE POINT       0000   73     350/ 11/ 14 1014.7S
LEWISETTA        0000   74 78  340/  7/ 10 1014.6R
SOLOMONS ISLAND  0000      80                N/A
PINEY POINT      0000          360/ 12/ 13   N/A

$$




USA.gov is the U.S. government's official web portal to all federal, state and local government web resources and services.